User: anonymous   Login
Location: Unspecified
(0.0000°N, 0.0000°E)
Time: 20:17:41
(UTC+00:00)
Language:

ONEWEB-0221 - Orbit

View from above orbital plane
View from above orbital plane
View from above satellite
View from above satellite

Ground track
Ground track

The orbit is defined by the following mean orbital elements,

1 48789U          26145.57887190 +.00000000 +00000-0 -14506-3 0 00002
2 48789  87.9000 263.6931 0001709  97.4248 262.7076 13.15547586    08
Epoch (UTC): 25 May 2026 13:53:34
Eccentricity: 0.0001709
inclination: 87.9000°
perigee height: 1200 km
apogee height: 1203 km
right ascension of ascending node: 263.6931°
argument of perigee: 97.4248°
revolutions per day: 13.15547586
mean anomaly at epoch: 262.7076°

The dashed part of the orbit path shows where the satellite is in the earth's shadow,  

DLR